Latest Insider Selling Stocks
SymbolCompany NameInsider NameTitleDateTransationSharePriceAmountFile Date
FSCTFORESCOUT TECHNOLOGIES, INCMilliken Darren J.SVP, GC & Corp Compliance Ofcr2018-12-14Sell3,87026.81103,7662018-12-14 21:33:22
AMEDAMEDISYS INCKemmerly David LSee Remarks2018-12-12Sell3,125133.82418,1882018-12-14 21:12:04
RCKTROCKET PHARMACEUTICALS, INC.SOUTHWELL DAVID PDirectior2018-12-13Sell38,76815.19588,8862018-12-14 21:06:35
AMEDAMEDISYS INCNorth Michael PaulChief Information Officer2018-12-12Sell7,520134.791,013,6212018-12-14 21:00:52
CRMSALESFORCE COM INCBenioff MarcChairman of the Board & co-CEO2018-12-14Sell5,000138.26691,3012018-12-14 20:56:00
CRMSALESFORCE COM INCRobbins Cynthia G.Pres. and Chief People Officer2018-12-14Sell1,583138.84219,7842018-12-14 20:51:38
PATKPATRICK INDUSTRIES INCGENDELL JEFFREY L ET ALDirectior2018-12-12Sell121,13832.353,918,5462018-12-14 20:15:57
CORTCORCEPT THERAPEUTICS INCMaduck SeanSee Remarks2018-12-12Sell60,00019.011,140,3662018-12-14 20:12:47
AWRAMERICAN STATES WATER COTANG EVA GSr. Vice President & CFO2018-12-12Sell1,20068.3882,0502018-12-14 20:09:33
LPLALPL Financial Holdings Inc.RIEPE JAMES SDirectior2018-12-12Sell4,51760.69274,1372018-12-14 20:07:37
TWTRTWITTER, INC.Williams Evan ClarkDirectior2018-12-12Sell682,24236.0824,618,0802018-12-14 20:06:32
TXMDTherapeuticsMD, Inc.Bernick BrianDirectior2018-12-12Sell183,3104.15760,5382018-12-14 20:01:52
LPLALPL Financial Holdings Inc.Gooley ThomasManaging Director2018-12-12Sell29,87660.721,814,0712018-12-14 20:00:23
CORTCORCEPT THERAPEUTICS INCRobb Gary CharlesChief Financial Officer2018-12-12Sell25,00019.01475,1532018-12-14 19:51:34
CORTCORCEPT THERAPEUTICS INCBELANOFF JOSEPH KChief Executive Officer2018-12-12Sell217,11519.014,126,5102018-12-14 19:50:02
DISWALT DISNEY CO/WOODFORD BRENTEVP, Control, Fin Plan & Tax2018-12-12Sell4,500113.04508,6902018-12-14 19:44:33
HIVEAEROHIVE NETWORKS, INCSCHAEPE CHRISTOPHER JDirectior2018-12-12Sell10,1923.4635,2332018-12-14 19:42:12
CHGGCHEGG, INCROSENSWEIG DANIELPRESIDENT, CEO & CHAIRMAN2018-12-12Sell65,08229.681,931,6342018-12-14 19:28:05
MNSTMonster Beverage CorpTABER HAROLD C JRDirectior2018-12-13Sell9,00054.55490,9502018-12-14 19:27:44
DOCUDOCUSIGN INCHudspith William NeilPresident, Worldwide Field Ops2018-12-12Sell56,12442.692,395,9692018-12-14 19:27:35
CHGGCHEGG, INCBROWN ANDREW JCHIEF FINANCIAL OFFICER2018-12-12Sell56,35230.081,695,2372018-12-14 19:27:31
MNSTMonster Beverage CorpKELLY THOMAS JEVP Finance Monster Energy Co.2018-12-13Sell14,66153.73787,7362018-12-14 19:27:01
BIO, BIOBBIO-RAD LABORATORIES, INC.Crowley MichaelEVP, GBL Commercial Operations2018-12-14Sell392248.0397,2282018-12-14 19:00:14
QNSTQUINSTREET, INCValenti DouglasChief Executive Officer2018-12-12Sell32,50016.15525,0002018-12-14 18:51:20
GLDDGreat Lakes Dredge & Dock CORPLevenson RyanDirectior2018-12-13Sell125,0007.53941,4952018-12-14 18:34:38
OSSONE STOP SYSTEMS, INC.Ison JimVice President of Sales2018-03-01Sell30,9672.6682,3422018-12-14 18:25:30
BYDBOYD GAMING CORPBOYD WILLIAM RVice President2018-12-13Sell100,00024.192,419,4002018-12-14 18:23:54
NVEENV5 Global, Inc.ALFORD DONALD CExecutive VP2018-12-12Sell7,00064.59452,1262018-12-14 18:05:53
JAZZJazz Pharmaceuticals plcHooper Suzanne SawochkaEVP & General Counsel2018-12-14Sell3,334140.21467,4602018-12-14 18:04:45
ACREAres Commercial Real Estate CorpHenderson James AlanPresident and CEO2018-12-12Sell13,61814.23193,7842018-12-14 18:00:21
ARGOArgo Group International Holdings, Ltd.JOSEPHSON MURAL RDirectior2018-12-12Sell5,54369.02382,5722018-12-14 17:49:34
PETQPetIQ, Inc.Santana WillExecutive Vice President2018-12-12Sell20,00030.28605,6002018-12-14 17:49:22
PCRXPacira Pharmaceuticals, Inc.Wicki AndreasDirectior2018-12-12Sell14,52746.84680,4962018-12-14 17:47:51
TPICTPI COMPOSITES, INCWeiss Daniel GDirectior2018-12-12Sell50,49326.211,323,1782018-12-14 17:46:37
TRHCTabula Rasa HealthCare, Inc.Knowlton Orsula VPresident2018-12-12Sell8,00075.87606,9292018-12-14 17:45:32
PRTKParatek Pharmaceuticals, Inc.BIGHAM MICHAELChairman and CEO2018-12-12Sell8,4006.7656,7842018-12-14 17:45:18
TRHCTabula Rasa HealthCare, Inc.Knowlton Calvin HChief Executive Officer2018-12-12Sell8,00075.87606,9292018-12-14 17:45:17
TRHCTabula Rasa HealthCare, Inc.Beckwith SamiraDirectior2018-12-12Sell1,73375.76131,2922018-12-14 17:45:01
PRTKParatek Pharmaceuticals, Inc.Pagan Douglas W.Chief Financial Officer2018-12-12Sell2,9186.7619,7262018-12-14 17:42:08
MGPIMGP INGREDIENTS INCSeaberg KarenDirectior2018-12-12Sell2,43560.03146,1732018-12-14 17:41:12
PRTKParatek Pharmaceuticals, Inc.Haskel William M.Sr. VP, Sec. & General Counsel2018-12-12Sell4,1326.6427,4222018-12-14 17:39:03
HAEHAEMONETICS CORPScanlan JacquelineSVP, Global Human Resources2018-12-12Sell1,027104.22107,0342018-12-14 17:38:15
PRTKParatek Pharmaceuticals, Inc.Loh EvanPresident, COO and CMO2018-12-12Sell11,5256.5074,9692018-12-14 17:35:40
SQSquare, Inc.McKelvey James Morgan Jr.Directior2018-12-12Sell400,00064.6025,838,3142018-12-14 17:34:30
SQSquare, Inc.Dorsey JackPresident, CEO & Chairman 10% Owner2018-12-12Sell103,03563.926,586,0022018-12-14 17:33:06
PRTKParatek Pharmaceuticals, Inc.Woodrow AdamVP & Chief Commercial Officer2018-12-12Sell3,7336.7625,2352018-12-14 17:32:29
USCRUS CONCRETE INCSutherland Colin McGillDirectior2018-12-12Sell13036.494,7442018-12-14 17:30:54
TRUTransUnionNeenan David MEVP - International2018-12-13Sell29,32261.021,789,2292018-12-14 17:29:24
ITWILLINOIS TOOL WORKS INCSANTI ERNEST SCOTTChairman & CEO2018-12-12Sell108,885133.1914,502,6502018-12-14 17:27:04
EVRGEvergy, Inc.SOMMA ANTHONY DEVP - CHIEF FINANCIAL OFFICER2018-12-13Sell1,00060.1760,1682018-12-14 17:26:26
WSBFWaterstone Financial, Inc.Egenhoefer Eric JSubsidiary President2018-12-11Sell616.50992018-12-14 17:18:37
ARWRARROWHEAD PHARMACEUTICALS, INC.Anzalone Christopher RichardChief Executive Officer2018-12-12Sell90,00014.071,266,3002018-12-14 17:18:07
MDBMongoDB, Inc.Bull ThomasPrincipal Accounting Officer2018-12-12Sell5,00089.13445,6502018-12-14 17:14:29
MDBMongoDB, Inc.RYAN KEVIN PDirectior2018-12-12Sell24,00090.172,164,2002018-12-14 17:13:57
ABBVAbbVie Inc.CHASE WILLIAM JEVP, Finance & Administration2018-12-12Sell60,00090.005,400,0002018-12-14 17:12:45
EXRExtra Space Storage Inc.OVERTURF JAMESEVP/Chief Marketing Officer2018-12-12Sell88097.4485,7442018-12-14 17:07:45
GSHDGoosehead Insurance, Inc.Jones Robyn Mary ElizabethDirectior 10% Owner2018-12-13Sell61,97227.321,693,1372018-12-14 17:06:33
CSCOCISCO SYSTEMS, INC.WEST STEVEN MDirectior2018-12-12Sell25,00047.981,199,5032018-12-14 17:05:48
NYSE: COLDAMERICOLD REALTY TRUSTDarweesh AndreaChief HR Officer and EVP2018-12-13Sell115,00027.443,156,0602018-12-14 17:05:40
GSHDGoosehead Insurance, Inc.Jones Mark EvanCEO 10% Owner2018-12-13Sell61,97227.321,693,1372018-12-14 17:05:31
GSHDGoosehead Insurance, Inc.Mark & Robyn Jones Descendants Trust 2014 10% Owner2018-12-13Sell61,97227.321,693,1372018-12-14 17:04:21
CDWCDW CorpRichards Thomas ESee Remarks2018-12-12Sell16,21691.301,480,5212018-12-14 17:03:49
CDWCDW CorpCORLEY CHRISTINA MSee Remarks2018-12-12Sell14,90092.101,372,3172018-12-14 17:03:15
AZOAUTOZONE INCHURTADO DOMINGOSr. Vice President2018-12-13Sell590888.62524,2862018-12-14 17:02:23
VAMVivaldi Opportunities FundASHER DANIEL 10% Owner2018-12-13Sell20014.552,9102018-12-14 17:02:19
YEXTYext, Inc.FERNANDEZ PHILLIP MDirectior2018-12-13Sell2,00015.6631,3202018-12-14 17:01:51
YEXTYext, Inc.Lerman HowardChief Executive Officer2018-12-13Sell30,00015.54466,2242018-12-14 17:01:16
NCLHNorwegian Cruise Line Holdings Ltd.Stuart AndrewPres. & CEO of NCL2018-12-12Sell6,50048.22313,4302018-12-14 17:01:11
EXLSExlService Holdings, Inc.STAGLIN GAREN KDirectior2018-12-12Sell1,85455.65103,1752018-12-14 17:00:22
HCCCH/Cell Energy CorpTurquino Equity, LLC 10% Owner2018-11-19Sell10,1500.787,9252018-12-14 17:00:18
HCCCH/Cell Energy CorpHIDALGO ANDYChief Executive Officer 10% Owner2018-11-19Sell10,1500.787,9252018-12-14 17:00:18
HCCCH/Cell Energy CorpHidalgo MatthewChief Financial Officer 10% Owner2018-11-19Sell10,1500.787,9252018-12-14 17:00:17
AZOAUTOZONE INCWright Kristen C.Sr. VP, Sec. & Gen Counsel2018-12-14Sell1,500885.001,327,5002018-12-14 16:58:45
AZOAUTOZONE INCMCKENNA WILLIAM ANDREWDirectior2018-12-13Sell3,000883.402,650,2082018-12-14 16:58:40
MXIMMAXIM INTEGRATED PRODUCTS INCAccardi TracyDirectior2018-12-12Sell2,83054.25153,5172018-12-14 16:55:15
LIILENNOX INTERNATIONAL INCSessa Daniel MEVP, Chief HR Officer2018-12-13Sell1,341215.83289,4282018-12-14 16:50:20
REGNREGENERON PHARMACEUTICALS INCVAGELOS P ROYChairman of the Board2018-12-12Sell6382.322,2942018-12-14 16:49:14
CORCoreSite Realty CorpSmith Steven JamesSVP, Sales & Marketing2018-12-12Sell3,200100.00320,0002018-12-14 16:48:44
NHINATIONAL HEALTH INVESTORS INCGaines Kristin SalleeChief Credit Officer2018-12-12Sell10,70880.36860,5262018-12-14 16:39:59
HDPHortonworks, Inc.Reasoner ScottSee Remarks2018-12-12Sell67216.3711,0012018-12-14 16:39:05
QCOMQUALCOMM INC/DERosenberg Donald JEVP & General Counsel2018-12-13Sell9,04858.01524,8952018-12-14 16:37:20
MDRXALLSCRIPTS HEALTHCARE SOLUTIONS, INC.Poulton Richard J.President2018-12-13Sell60,0009.82589,2332018-12-14 16:35:47
FATEFATE THERAPEUTICS INCNashat AmirDirectior2018-12-12Sell425,00016.787,132,6902018-12-14 16:33:58
JNJJOHNSON & JOHNSONKapusta Ronald AController, CAO2018-12-13Sell3,643147.31536,6382018-12-14 16:33:57
CVACOVANTA HOLDING CORPStauder Paul E.President, Covanta Envir. Sol.2018-12-13Sell1,30015.6020,2802018-12-14 16:31:28
UNFUNIFIRST CORPCROATTI CYNTHIAExecutive VP and Treasurer 10% Owner2018-12-13Sell2,288141.20323,0662018-12-14 16:31:11
CHSPChesapeake Lodging TrustNuechterlein Jeffrey DDirectior2018-12-13Sell1,00028.4528,4462018-12-14 16:30:51
COUPCoupa Software IncTiscornia Anthony DPrincipal Accounting Officer2018-12-12Sell78265.0450,8612018-12-14 16:30:29
COUPCoupa Software IncWinter Steven MChief Revenue Officer2018-12-12Sell11,33665.68744,5932018-12-14 16:30:14
KRGKITE REALTY GROUP TRUSTKite John AChairman & CEO2018-12-13Sell12,00016.21194,5202018-12-14 16:28:53
PPandora Media, Inc.Lapic S AimeeChief Marketing Officer2018-12-12Sell9,3129.0183,9012018-12-14 16:26:51
HBIHanesbrands Inc.Upchurch W Howard JrGroup President, IW Americas2018-12-12Sell40,68814.81602,7112018-12-14 16:25:02
LSILIFE STORAGE, INC.KILLEEN EDWARD FCOO2018-12-12Sell4,006101.10405,0082018-12-14 16:23:46
DMDominion Energy Midstream Partners, LPLeopold DianeEVP,Pres&CEO GasInfrastructure2018-12-12Sell5,00019.2196,0272018-12-14 16:21:12
DMDominion Energy Midstream Partners, LPBrown Carlos MVP & General Counsel2018-12-12Sell3,30019.1463,1622018-12-14 16:21:07
DMDominion Energy Midstream Partners, LPChapman James R.SVP, CFO & Treasurer2018-12-12Sell16,80019.22322,9082018-12-14 16:21:02
CARGCarGurus, Inc.Steinert LangleyCEO, President and Chairman 10% Owner2018-12-12Sell13,05035.71466,0062018-12-14 16:20:55
CARGCarGurus, Inc.Patton Kathleen BenderSr. VP, GC and Secretary2018-12-13Sell2,00635.5871,3822018-12-14 16:20:01
ADROADURO BIOTECH, INC.Lew JenniferChief Financial Officer2018-12-12Sell1,0352.933,0352018-12-14 16:19:56
ADROADURO BIOTECH, INC.Templeman BlaineChief Legal Officer2018-12-12Sell1,2412.933,6392018-12-14 16:18:41
CARGCarGurus, Inc.Chrzan Oliver IanChief Technology Officer2018-12-12Sell70,00035.422,479,4002018-12-14 16:18:26
ADROADURO BIOTECH, INC.ISAACS STEPHEN TPresident and CEO2018-12-12Sell5,8292.9317,0912018-12-14 16:17:25
KFRCKFORCE INCALLRED JOHNDirectior2018-12-12Sell1,50030.7246,0802018-12-14 16:16:27
ADROADURO BIOTECH, INC.van Elsas AndreaChief Scientific Officer2018-12-12Sell2,1712.936,3652018-12-14 16:15:48
QTRXQuanterix CorpOrticerio ErnestSVP Finance and Corporate Dev2018-12-14Sell25,00019.49487,2632018-12-14 16:14:41
QTRXQuanterix CorpDRISCOLL JOSEPHChief Financial Officer2018-12-13Sell20,00019.21384,2142018-12-14 16:14:36
LRYLIBERTY PROPERTY TRUSTMorrissey Mary BethSVP & Chief Accounting Officer2018-12-12Sell6,84345.52311,4732018-12-14 16:13:07
HAYNHAYNES INTERNATIONAL INCPinkham Scott RVP - Manufacturing2018-12-14Sell5,14728.50146,6902018-12-14 16:11:09
HAYNHAYNES INTERNATIONAL INCLosch Marlin C IIIVP, Sales and Distribution2018-12-13Sell1,62829.4147,8792018-12-14 16:10:48
NYNYEMPIRE RESORTS INCPEARLMAN EMANUEL RExecutive Chairman2018-12-12Sell2,00010.5421,0752018-12-14 16:10:31
AREXApproach Resources IncShaw Ian M.Chief Accounting Officer2018-12-13Sell20,0001.2525,0002018-12-14 16:10:12
EVTCEVERTEC, Inc.Vizcarrondo MiguelExecutive Vice President2018-12-13Sell40,00027.331,093,2002018-12-14 16:06:59
NEONEOGENOMICS INCGENERAL ELECTRIC CO2018-12-14Sell10,835,14512.00130,021,7442018-12-14 16:05:50
WSCWillScot CorpSAGANSKY JEFFREYDirectior2018-12-12Sell150,00012.081,812,0002018-12-14 16:05:40
CCOICOGENT COMMUNICATIONS HOLDINGS, INC.WEED THADDEUS GERARDVP, CFO & Treasurer2018-12-14Sell3,00046.89140,6582018-12-14 16:05:05
BLFSBIOLIFE SOLUTIONS INCRice MichaelPresident & CEO2018-12-13Sell14,78111.44169,0952018-12-14 16:02:38
BLFSBIOLIFE SOLUTIONS INCHinson Andrew GDirectior2018-12-13Sell4,00012.0548,2002018-12-14 16:02:29
CWSTCASELLA WASTE SYSTEMS INCPETERS GREGORY BDirectior2018-12-14Sell4,00030.59122,3602018-12-14 16:01:40
MUJBLACKROCK MUNIHOLDINGS NEW JERSEY QUALITY FUND, INC.JAECKEL THEODORE R JR2018-12-13Sell2,79512.7635,6642018-12-14 15:50:33
CCOICOGENT COMMUNICATIONS HOLDINGS, INC.FERGUSON Lewis HDirectior2018-12-14Sell80047.2037,7602018-12-14 15:48:29
XOMEXXON MOBIL CORPHansen Neil AVice President and Secretary2018-12-14Sell2,79876.81214,9142018-12-14 15:48:12
RENResolute Energy CorpHicks Thomas O JrDirectior2018-12-13Sell27,79032.75910,1232018-12-14 15:23:05
CTMXCytomX Therapeutics, Inc.RAY DEBANJANChief Financial Officer2018-12-12Sell3,00015.0045,0002018-12-14 15:23:04
CATMCardtronics plcAntilley DanChief Info Security Officer2018-12-12Sell5,00031.31156,5502018-12-14 15:14:06
BMIBADGER METER INCSMILEY BEVERLY L PVP-Controller2018-12-11Sell4,00054.53218,1262018-12-14 15:09:15
CTXSCITRIX SYSTEMS INCSOISSON JESSICAVP & Corporate Controller2018-12-13Sell1,466110.77162,3932018-12-14 14:59:58
BMRNBIOMARIN PHARMACEUTICAL INCBIENAIME JEAN JACQUESChief Executive Officer2018-12-12Sell2,00093.12186,2402018-12-14 14:44:48
LIILENNOX INTERNATIONAL INCReitmeier Joseph WilliamEVP & Chief Financial Officer2018-12-12Sell1,341210.00281,6102018-12-14 14:43:52
LIILENNOX INTERNATIONAL INCJOHNSTON TERRY LEVP, President/COO Commercial2018-12-12Sell1,073210.00225,3302018-12-14 14:40:30
LIILENNOX INTERNATIONAL INCBluedorn Todd MChairman and CEO2018-12-12Sell6,171210.181,297,0392018-12-14 14:38:00
LIILENNOX INTERNATIONAL INCBedard Gary SEVP, President and COO, WWR2018-12-12Sell526210.00110,4602018-12-14 14:32:47
NGNOVAGOLD RESOURCES INCLang Gregory A.President and CEO2018-12-13Sell44,0993.94173,7502018-12-14 14:29:35
DKLDelek Logistics Partners, LPD'Andrea Francis C.Directior2018-12-12Sell11031.793,4972018-12-14 14:09:29
HPHWHOOPER HOLMES INCDaoust Paul RDirectior2018-12-12Sell100,0000.001802018-12-14 14:05:40
RFPResolute Forest Products Inc.LAFAVE JOHNSenior Vice President2018-12-12Sell12,5009.40117,5002018-12-14 13:08:24
NSECNATIONAL SECURITY GROUP INCAbernathey Andrew J. 10% Owner2018-11-14Sell1,58112.5619,8592018-12-14 12:32:46
NFBKNorthfield Bancorp, Inc.Connors John P JrDirectior2018-12-12Sell8,87313.39118,7912018-12-14 11:59:29
RDNTRadNet, Inc.HAMES NORMAN RPresident, Western Operations2018-12-13Sell5,00012.6863,4002018-12-14 11:41:40
RDNTRadNet, Inc.HAMES NORMAN RPresident, Western Operations2018-12-10Sell15,00012.57188,5502018-12-14 11:40:48
CMECME GROUP INC.Tully SeanSr MD Global Hd Financial & OT2018-12-12Sell13,500191.692,587,7702018-12-14 11:13:26
EBIXEBIX INCRENNES FONDATION 10% Owner2018-12-06Sell210,00044.109,260,0322018-12-14 10:13:58
CODACoda Octopus Group, Inc.Forest Manor N.V. 10% Owner2018-12-12Sell1,251,0075.757,193,2902018-12-14 10:07:24
CEMClearBridge MLP & Midstream Fund Inc.Murphy Terrence2018-12-12Sell6,47811.3973,8112018-12-14 09:53:51
GEF, GEF.BGREIF INCRagan Virginia D. 10% Owner2018-11-06Sell5,70051.67294,5192018-12-14 08:29:17
QADA, QADBQAD INCLOPKER PAMELA MPresident 10% Owner2018-12-12Sell4,00042.12168,4802018-12-14 08:07:28
HEARTurtle Beach CorpSG VTB Holdings, LLC 10% Owner2018-12-11Sell289,92317.305,016,5122018-12-13 21:45:29
RNGRingCentral IncShmunis VladimirCEO & Chairman 10% Owner2018-12-11Sell51,53285.674,414,5082018-12-13 21:18:05
QNSTQUINSTREET, INCSANDS GREGORY PDirectior2018-12-11Sell61,69715.95984,1512018-12-13 21:16:28
CBRLCRACKER BARREL OLD COUNTRY STORE, INCBIGLARI, SARDAR 10% Owner2018-12-11Sell129,600175.0322,684,1802018-12-13 21:15:37
FOXFFOX FACTORY HOLDING CORPGlasman ZviCFO and Treasurer2018-12-11Sell5,00065.87329,3282018-12-13 21:00:20
MYOKMyoKardia IncGIANAKAKOS ANASTASIOSPresident and CEO2018-12-12Sell3,00055.68167,0452018-12-13 20:41:26
DOCUDOCUSIGN INCHudspith William NeilPresident, Worldwide Field Ops2018-11-15Sell37,50040.751,527,9782018-12-13 20:19:45
MACMACERICH COCOPPOLA ARTHUR MChief Executive Officer2018-12-11Sell105,57449.795,256,5932018-12-13 20:12:41
AMPHAmphastar Pharmaceuticals, Inc.Zhang Jack Y.CEO & Chief Scientific Officer 10% Owner2018-12-11Sell133,91521.292,851,0522018-12-13 20:08:16
AMPHAmphastar Pharmaceuticals, Inc.Applied Physics & Chemistry Laboratories, Inc. 10% Owner2018-12-11Sell133,91521.292,851,0522018-12-13 20:05:44
MCOAMarijuana Co of America, Inc.STEINBERG DONALD JPresident 10% Owner2018-12-11Sell1,400,0000.0229,5402018-12-13 19:54:42
VMWVMWARE, INC.Rowe ZaneChief Financial Officer & EVP2018-12-12Sell6,500165.081,073,0202018-12-13 19:42:47
RNGRingCentral IncSipes DavidChief Operating Officer2018-12-13Sell5,84285.15497,4372018-12-13 19:35:40
ZNGAZYNGA INCBromberg Matthew SChief Operating Officer2018-12-11Sell33,5003.81127,6352018-12-13 19:34:11
TNDMTANDEM DIABETES CARE INCBERGER DAVID BEVP, GEN. COUNSEL & SECRETARY2018-12-06Sell11,49334.54396,9912018-12-13 19:30:46
TNDMTANDEM DIABETES CARE INCHANSEN BRIAN BEVP & CHIEF COMMERCIAL OFFICER2018-12-12Sell25,00037.75943,7502018-12-13 19:30:08
ILMNILLUMINA INCFLATLEY JAY TDirectior2018-12-11Sell3,300334.131,102,6292018-12-13 19:26:34
ATRAAtara Biotherapeutics, Inc.Ciechanover Isaac E.Chief Executive Officer2018-12-12Sell7,80042.66332,7092018-12-13 18:58:16
ESSESSEX PROPERTY TRUST, INC.Kleiman Angela L.Executive Vice President & CFO2018-12-11Sell1,000264.65264,6502018-12-13 18:56:08
NOWServiceNow, Inc.Desai Chirantan JitendraChief Product Officer2018-12-12Sell2,031187.00379,7972018-12-13 18:47:42
LIVNLivaNova PLCNovak Alfred JDirectior2018-12-11Sell50097.1648,5802018-12-13 18:47:35
CRMSALESFORCE COM INCBenioff MarcChairman of the Board & co-CEO2018-12-12Sell10,000141.361,413,5912018-12-13 18:46:39
CRMSALESFORCE COM INCBLOCK KEITHco-CEO2018-12-13Sell2,160141.50305,6402018-12-13 18:43:31
EVBGEVERBRIDGE, INC.Hughes Robert WPresident, Go-to-Market2018-12-11Sell23,70054.041,280,6532018-12-13 18:41:46
JAGJagged Peak Energy Inc.Howard Robert WilliamEVP, CFO2018-11-15Sell31,25012.23382,0942018-12-13 18:41:17
GCAPGAIN Capital Holdings, Inc.Rotsztain DiegoGeneral Counsel and Secretary2018-12-11Sell39,2507.34287,9072018-12-13 18:35:51
DSWDSW Inc.SONNENBERG HARVEY LDirectior2018-12-12Sell5,54025.50141,2702018-12-13 18:33:32
GWREGuidewire Software, Inc.Polelle MichaelChief Delivery Officer2018-12-12Sell1,00486.7787,1172018-12-13 18:33:24
ALKSAlkermes plc.ANSTICE DAVID WDirectior2018-12-12Sell8,78735.59312,7102018-12-13 18:30:33
GHDXGENOMIC HEALTH INCCole G BradleyCFO2018-12-11Sell15,00071.951,079,2192018-12-13 18:24:15
ETRENTERGY CORP /DE/HINNENKAMP PAUL DEVP & Chief Operating Officer2018-12-12Sell5,00090.00450,0002018-12-13 18:24:15
ETRENTERGY CORP /DE/FISACKERLY HALEY2018-12-12Sell2,53390.00227,9702018-12-13 18:23:24
ETRENTERGY CORP /DE/Brown Marcus VEVP & General Counsel2018-12-12Sell28,20090.002,538,0002018-12-13 18:22:30
RPREALPAGE INCWINN STEPHEN TChairman President & CEO 10% Owner2018-12-11Sell127,66351.776,609,2422018-12-13 18:20:05
RPREALPAGE INCSeren Capital, Ltd. 10% Owner2018-12-11Sell127,66351.776,609,2422018-12-13 18:18:14
HRHEALTHCARE REALTY TRUST INCSINGLETON JOHN KNOXDirectior2018-12-12Sell13,59330.18410,2392018-12-13 18:16:13
INSPInspire Medical Systems, Inc.Griffin Jerry CDirectior2018-12-11Sell1,30037.6048,8802018-12-13 18:13:29
FBIOFortress Biotech, Inc.Avgerinos GeorgeSVP, BIOLOGICS OPERATIONS2018-12-11Sell97,3251.05102,1912018-12-13 18:10:37
WMTWalmart Inc.WALTON JIM C 10% Owner2018-12-11Sell1,573,84093.81147,634,3362018-12-13 18:06:27
JAGJagged Peak Energy Inc.Howard Robert WilliamEVP, CFO2018-12-12Sell31,25010.21319,0472018-12-13 18:05:58
WMTWalmart Inc.WALTON S ROBSONDirectior 10% Owner2018-12-11Sell1,573,84093.81147,634,3362018-12-13 18:03:59
WMTWalmart Inc.WALTON ALICE L 10% Owner2018-12-11Sell1,573,84093.81147,634,3362018-12-13 18:02:02
MWAMueller Water Products, Inc.TOKARZ MICHAEL TDirectior2018-12-12Sell9,54610.2798,0682018-12-13 17:40:36
VERIVeritone, Inc.ACACIA RESEARCH CORP 10% Owner2018-12-11Sell200,0006.221,243,5392018-12-13 17:40:11
MTNVAIL RESORTS INCSORTE JOHN FDirectior2018-12-12Sell2,134240.02512,2032018-12-13 17:32:52
TTEKTETRA TECH INCRitrievi Kimberly EDirectior2018-12-11Sell4,32354.37235,0422018-12-13 17:28:13
NVCRNovoCure LtdShah PriteshChief Commercial Officer2018-12-12Sell38,78136.001,396,1362018-12-13 17:27:57
WELLWELLTOWER INC.Kerr MercedesEVP-Business Development2018-12-11Sell4,34273.17317,6832018-12-13 17:26:29
KRNYKearny Financial Corp.Aanensen Theodore JDirectior2018-12-12Sell3,50012.5643,9522018-12-13 17:24:28
PFPTPROOFPOINT INCSteele GaryChief Executive Officer2018-12-12Sell50,00095.004,750,1572018-12-13 17:21:35
GSHDGoosehead Insurance, Inc.Jones Robyn Mary ElizabethDirectior 10% Owner2018-12-12Sell8,95727.01241,9112018-12-13 17:21:20
GSHDGoosehead Insurance, Inc.Jones Mark EvanCEO 10% Owner2018-12-12Sell8,95727.01241,9112018-12-13 17:20:33
GSHDGoosehead Insurance, Inc.Mark & Robyn Jones Descendants Trust 2014 10% Owner2018-12-12Sell8,95727.01241,9112018-12-13 17:19:25
CRVLCORVEL CORPCORSTAR HOLDINGS INC 10% Owner2018-12-11Sell10,73166.12709,5842018-12-13 17:18:24
NWNNorthwest Natural Holding CoRussell Lori LVP, Utility Services2018-12-11Sell1,20066.4379,7162018-12-13 17:17:34